Regional Weather Roundup
Issued by NWS Kansas City/Pleasant Hill, MO

Home | Current Version | Previous Version | Text Only | Print | Product List | Glossary On
Versions: 1 2 3 4 5 6 7 8 9 10 11 12 13 14 15 16 17 18 19 20 21 22 23 24 25 26 27 28 29 30 31 32 33 34 35 36 37 38 39 40 41 42 43 44 45 46 47 48 49 50
000
ASUS43 KEAX 272010
RWREAX

WEATHER ROUNDUP FOR EASTERN KANSAS AND NORTHWEST MISSOURI
NATIONAL WEATHER SERVICE KANSAS CITY/PLEASANT HILL MO
200 PM CST FRI FEB 27 2015

KSZ040-057-103>105-MOZ028-029-037-043-272100-
...KANSAS CITY METROPOLITAN AREA...

CITY           SKY/WX    TMP DP  RH WIND       PRES   REMARKS
K.C. INTL      CLOUDY    15   0  51 SE6       30.56F WCI   6
K.C. DOWNTOWN  PTSUNNY   17  -1  45 CALM      30.59F
LEES SUMMIT    MOSUNNY   16  -1  47 CALM      30.57F
OLATHE - IXD   PTSUNNY   16  -1  47 CALM      30.57F
OLATHE - OJC   PTSUNNY   17  -2  43 VRB3      30.55F
LAWRENCE       CLOUDY    16  -1  47 CALM      30.59F

$$

MOZ001>008-011>017-020>025-030>033-038>040-044>046-053-054-272100-
...NORTHERN AND CENTRAL MISSOURI...

CITY           SKY/WX    TMP DP  RH WIND       PRES   REMARKS
ST. JOSEPH     SUNNY     18   1  47 E6        30.59F WCI  10
MOSBY          MOCLDY    18   1  49 CALM      30.59F
WARRENSBURG    PTSUNNY   19   1  45 CALM      30.59F
WHITEMAN AFB   MOSUNNY   18   0  44 NE5       30.57F WCI  11
CLINTON        MOSUNNY   21   1  42 N3        30.59F
SEDALIA        MOSUNNY   21   1  41 NE8       30.59F WCI  11
WARSAW         NOT AVBL
MARSHALL       PTSUNNY   18   3  53 CALM      30.64F
CHILLICOTHE      N/A     15   2  56 CALM      30.62F
MOBERLY        MOSUNNY   19   0  42 CALM      30.62F
KIRKSVILLE     MOSUNNY   15   2  56 VRB3      30.60F

$$

MOZ041-047>049-056>058-063>065-088>090-097-272100-
...EASTERN AND SOUTHERN MISSOURI...

CITY           SKY/WX    TMP DP  RH WIND       PRES   REMARKS
ST. LOUIS INTL PTSUNNY   18   2  49 VRB7      30.64F WCI   9
SPIRIT OF STL  PTSUNNY   20   0  41 N8        30.63F WCI  10
COLUMBIA       MOSUNNY   20   0  41 N10       30.58F WCI   9
JEFFERSON CITY MOSUNNY   20  -2  38 VRB5      30.61F WCI  13
MEXICO         SUNNY     18   5  57 N6        30.62F WCI   9
HANNIBAL       SUNNY     16  -8  35 N3        30.63F
ROLLA          MOSUNNY   20  -1  40 CALM      30.53F
LEBANON        MOSUNNY   19   0  42 E3        30.52F
OSAGE BEACH    MOSUNNY   19   0  42 NE6       30.57F WCI  11
SPRINGFIELD    CLOUDY    20   1  43 CALM      30.51F
BRANSON        CLOUDY    21   1  42 NW5       30.53S WCI  15
NEVADA         CLOUDY    19   1  45 NE9       30.58F WCI   9
JOPLIN         CLOUDY    20   2  45 NE6       30.55F WCI  12
WEST PLAINS    CLOUDY    20  -1  40 NE9       30.50F WCI   9

$$

IAZ060-094-KSZ022-034>040-054-083-096-NEZ052-066-093-272100-
...KANSAS...SOUTHEAST NEBRASKA AND IOWA...

CITY           SKY/WX    TMP DP  RH WIND       PRES   REMARKS
TOPEKA         CLOUDY    15  -1  49 VRB3      30.58F
MANHATTAN      PTSUNNY   17   1  49 CALM      30.54F
EMPORIA        PTSUNNY   18   0  45 SE8       30.52F WCI   8
CHANUTE        CLOUDY    18   2  49 E7        30.56F WCI   9
WICHITA        LGT SNOW  16   8  71 SE7       30.52F WCI   6
OMAHA          MOSUNNY   17   0  47 E3        30.56F
LINCOLN        SUNNY     18  -3  39 SE7       30.54F WCI   9
FALLS CITY     SUNNY     19  -1  41 S8        30.56F WCI   9
LAMONI         SUNNY     11   0  61 CALM      30.57F
DES MOINES     MOSUNNY   12  -2  53 W5        30.60F WCI   4

$$



USA.gov is the U.S. government's official web portal to all federal, state and local government web resources and services.